Regional Weather Roundup
Issued by NWS Grand Forks, ND

Home | Current Version | Previous Version | Text Only | Print | Product List | Glossary Off
Versions: 1 2 3 4 5 6 7 8 9 10 11 12 13 14 15 16 17 18 19 20 21 22 23 24 25 26 27 28 29 30 31 32 33 34 35 36 37 38 39 40 41 42 43 44 45 46 47 48 49 50

000
ASUS43 KFGF 201131
RWRFGF
PRAIRIE TO PINES  WEATHER ROUNDUP
NATIONAL WEATHER SERVICE EASTERN NORTH DAKOTA/GRAND FORKS ND
600 AM CDT SUN APR 20 2014

 **SATELLITE DATA USED TO AUGMENT SKY COVER AT AUTOMATED STATIONS**
 *****  WEATHER ACROSS EASTERN NORTH DAKOTA  *****

CITY           SKY/WX    TMP DP  RH WIND       PRES   REMARKS
GRAND FORKS    CLEAR     31  28  89 CALM      30.03R
GRAND FRKS AFB FOG       28  28 100 N2        30.03R VSB 1/2
GRAND FRKS NWS   N/A     30 N/A N/A MISG        N/A
DEVILS LAKE    CLEAR     30  23  74 NE3       29.99S
FARGO          CLEAR     30  28  92 CALM      30.03R
WAHPETON ARPT  SUNNY     30  27  86 S5        30.04R
$$

 ***** WEATHER ACROSS CENTRAL AND WESTERN NORTH DAKOTA  *****

CITY           SKY/WX    TMP DP  RH WIND       PRES   REMARKS
BISMARCK       CLEAR     34  32  92 NE8       29.97F
MINOT          CLEAR     35  30  82 S5        29.92F
JAMESTOWN      CLEAR     32  31  96 S6        29.99S
MINOT AFB      CLEAR     34  33  94 S8        29.92F
GARRISON         N/A     33  29  85 E3        29.94S
WILLISTON      CLEAR     29  26  89 CALM      29.87F
DICKINSON      CLEAR     37  25  61 S10       29.88F
HETTINGER      CLEAR     28  22  78 CALM      29.93F
$$

 *****  OTHER AIRPORT OBSERVATIONS IN OUR AREA  *****

CITY           SKY/WX    TMP DP  RH WIND       PRES   REMARKS
WALHALLA         N/A     28  28 100 CALM      30.02S
GRAFTON AIRPOR FAIR      28  28 100 W5        30.03R WCI  23
VALLEY CITY AR FAIR      32  32 100 S3        30.01S
CANDO          FAIR      27  27 100 E7        29.99S WCI  19
CAVALIER APRT  FAIR      28  27  93 CALM      30.01F
GWINNER        SUNNY     36  36 100 SE8       30.03S
SHEYENNE NWR     N/A     30  30 100 CALM      29.95
ROLLA          FAIR      27  27 100 CALM      29.98F
 ***** THE ABOVE OBSERVATIONS ARE NON NWS ARE NOT QUALITY
       CONTROLLED AND MAY MIS-REPORT RAIN FOR SNOW...
$$

  *****  WEATHER ACROSS NORTHERN MINNESOTA  *****

CITY           SKY/WX    TMP DP  RH WIND       PRES   REMARKS
FLAG ISLAND    CLEAR     32  28  86 W7        30.00R
WARROAD        CLEAR     30  27  86 SW5       30.02R
ROSEAU         CLEAR     30  27  86 SW3       30.02R
HALLOCK        CLOUDY    30  28  93 CALM      30.02S
THF RVR FALLS  CLEAR     30  27  86 CALM      30.03R
BAUDETTE       CLEAR     30  28  92 CALM      30.01R
WASKISH        CLEAR     28  28 100 CALM      30.03R
CROOKSTON      CLEAR     30  30 100 S3        30.04R
$$
  *****  WEATHER ACROSS CENTRAL AND WEST MINNESOTA  *****

CITY           SKY/WX    TMP DP  RH WIND       PRES   REMARKS
FOSSTON        CLEAR     27  27 100 S6        30.03R WCI  20
BEMIDJI        FOG       26  26  99 CALM      30.02S VSB 3/4
PARK RAPIDS    CLEAR     32  29  88 CALM      30.03S
ELBOW LAKE     FAIR      42  35  79 E7        30.03R
WADENA         CLEAR     32  30  93 CALM      30.04S
DETROIT LAKES  CLEAR     36  34  93 SE3       30.04S
MOORHEAD       CLEAR     36  36 100 S1        30.03S
FERGUS FALLS   CLEAR     43  32  65 CALM      30.01R
MORRIS MN      CLEAR     37  34  87 E8        30.03R
STAPLES        CLEAR     32  30  93 CALM      30.05R
$$
  *****  WEATHER ELSEWHERE ACROSS MINNESOTA  *****

CITY           SKY/WX    TMP DP  RH WIND       PRES   REMARKS
DULUTH         CLEAR     36  33  89 NW7       30.02S
INTRNTL FALLS  CLEAR     28  25  88 SW3       30.01R
ELY            CLEAR     28  27  93 CALM      30.03R FOG
CLOQUET        CLEAR     34  30  86 NW3       30.03R FOG
WHEATON        CLEAR     36  34  93 CALM      30.06S
BRAINERD       CLEAR     35  28  75 CALM      30.05S
HIBBING        CLEAR     26  22  84 CALM      30.03R
ALEXANDRIA     CLEAR     40  33  76 E6        30.05S
SAINT CLOUD    CLEAR     38  35  89 N3        30.04R FOG
MINNEAPOLIS    CLOUDY    46  45  96 CALM      30.03R FOG
$$

  *****  WEATHER ACROSS SOUTH DAKOTA  *****

CITY           SKY/WX    TMP DP  RH WIND       PRES   REMARKS
SIOUX FALLS    CLOUDY    51  40  65 N7        30.00S
BROOKINGS      NOT AVBL
WATERTOWN      CLEAR     39  33  79 E3        30.03S
HURON          CLEAR     33  28  81 E5        30.01S
SISSETON         N/A     35  32  88 W5        30.04S
ABERDEEN       CLEAR     32  30  92 NE7       30.01S
MITCHELL       CLEAR     36  28  73 CALM      30.01S
PIERRE         CLEAR     34  26  72 NE3       29.97S
MOBRIDGE       CLEAR     36  31  82 E9        29.95F
RAPID CITY     CLEAR     39  29  67 CALM      29.92S
$$

  *****  SOME WEATHER IN NEARBY STATES *****

CITY           SKY/WX    TMP DP  RH WIND       PRES   REMARKS
GLASGOW MT     MOCLDY    38  29  70 E9        29.79F
GREAT FALLS MT PTCLDY    42  28  57 SW15      29.98R
CHEYENNE WY    CLEAR     39  33  79 W7        30.05S
SCOTTSBLUFF NE CLEAR     40  33  76 E7        29.99F
OMAHA NE       PTCLDY    61  46  57 S8        29.97F
DES MOINES IA  MOCLDY    58  44  60 S10       30.04F
DAVENPORT IA   PTCLDY    56  37  49 S14       30.15F
CHICAGO IL     PTCLDY    44  28  53 S7        30.21S
EAU CLAIRE WI  CLOUDY    52  47  83 SE5       30.03R
LA CROSSE WI   CLOUDY    61  38  42 S12       30.05S
$$

  *****  SOME NATIONAL WEATHER *****

CITY           SKY/WX    TMP DP  RH WIND       PRES   REMARKS
LA GUARDIA NY  MOCLDY    46  30  53 E12       30.47R
RALEIGH NC     MOCLDY    49  33  54 NE9       30.20S
ATLANTA GA     PTCLDY    51  43  74 NE13      30.18S
NEW ORLEANS LA PTCLDY    60  57  89 CALM      30.13R
OKLAHOMA CITY  CLOUDY    57  50  77 S7        30.08R
ALBUQUERQUE NM PTCLDY    48  44  86 SE5       30.11F
SALT LAKE CITY MOCLDY    56  37  49 S7        30.02R
LOS ANGELES CA CLEAR     58  54  86 E5        30.04S
BOISE ID       CLEAR     46  32  58 NW10      30.16R
SEATTLE WA     MOCLDY    45  40  82 S12       30.26R
$$

*** WEATHER ACROSS MANITOBA...SASKATCHEWAN AND ONTARIO ***
                ***ONTARIO***

CITY           SKY/WX    TMP DP  RH WIND       PRES   REMARKS
GERALDTON      CLOUDY    34  32  93 SW9       29.97  FOG
THUNDER BAY    FOG       25  25 100 W5        30.02R VSB 1/2 WCI  19
SIOUX LOOKOUT  CLOUDY    36  30  80 SW7       29.94S
TORONTO        MOCLDY    37  28  70 E5        30.40R
BIG TROUT LK   LGT RAIN  34  32  93 W9        29.69R
PICKLE LAKE    MOCLDY    34  32  93 SW14      29.85  WCI  24
DRYDEN         CLEAR     32  30  93 SW8       29.96R WCI  25
KENORA         PTCLDY    30  28  93 W6        29.98R WCI  24
$$
                *** MANITOBA***

CITY           SKY/WX    TMP DP  RH WIND       PRES   REMARKS
BRANDON        CLEAR     27  27 100 NW2       29.99S
DAUPHIN        CLEAR     32  28  86 SW8       29.97R WCI  25
ISLAND LAKE    FLURRIES  32  32 100 W10       29.78R WCI  24
PILOT MOUND      N/A     27  27 100 SW1         N/A
THE PAS        CLOUDY    28  28 100 SW2       29.92R
THOMPSON       FLURRIES  30  30 100 N6        29.85R WCI  24
WINNIPEG       PTCLDY    28  27  93 W6        30.01S WCI  22
LYNN LAKE      CLEAR     23  21  93 N6        29.89R WCI  16
CHURCHILL      MOCLDY    16  14  93 NE9       29.96R WCI   4
GILLAM         LGT SNOW  28  28 100 N9        29.82R WCI  20
$$
                ***SASKATCHEWAN***

CITY           SKY/WX    TMP DP  RH WIND       PRES   REMARKS
ESTEVAN        PTCLDY    28  28 100 E8        29.89F WCI  20
KINDERSLEY     MOCLDY    36  30  80 SE18G25   29.74F
LLOYDMINSTER   CLOUDY    34  32  93 E9        29.77S
PRINCE ALBERT  MOCLDY    23  23 100 E3        29.90R
REGINA         MOCLDY    30  28  93 E9        29.88F WCI  22
YORKTON        CLEAR     28  27  93 SW2       29.93S
N. BATTLEFORD  CLOUDY    34  32  93 E8        29.84S
LA RONGE       PTCLDY    19  18  93 NE2       29.89R
SASKATOON      MOCLDY    28  27  93 SE5       29.89S WCI  23
SWIFT CURRENT  CLEAR     30  28  93 SE5       29.77F
$$
NOTE: THESE ARE AUTOMATED STATIONS WITH LIMITED QUALITY CONTROL
      "FAIR" INDICATES FEW OR NO CLOUDS BELOW 12,000 FEET WITH NO
      SIGNIFICANT WEATHER AND/OR OBSTRUCTIONS TO VISIBILITY.
      SKY/WX - SKY CONDITION AND SIGNIFICANT WEATHER.
      TMP - AIR TEMPERATURE.    DP   - DEWPOINT TEMPERATURE.
      RH  - RELATIVE HUMIDITY.  PRES - PRESSURE.
      HX  - HEAT INDEX.         WCI  - WIND CHILL INDEX.
$



USA.gov is the U.S. government's official web portal to all federal, state and local government web resources and services.